Year,Month,Day,Hour,Minute,Value (Times are PST for temperature in C)
2018,07,05,00,00,18.80
2018,07,05,00,01,18.80
2018,07,05,00,02,18.80
2018,07,05,00,03,18.80
2018,07,05,00,04,18.80
2018,07,05,00,05,18.70
2018,07,05,00,06,18.70
2018,07,05,00,07,18.70
2018,07,05,00,08,18.60
2018,07,05,00,09,18.60
2018,07,05,00,10,18.60
2018,07,05,00,11,18.60
2018,07,05,00,12,18.60
2018,07,05,00,13,18.60
2018,07,05,00,14,18.60
2018,07,05,00,15,18.60
2018,07,05,00,16,18.60
2018,07,05,00,17,18.60
2018,07,05,00,18,18.60
2018,07,05,00,19,18.70
2018,07,05,00,20,18.70
2018,07,05,00,21,18.70
2018,07,05,00,22,18.70
2018,07,05,00,23,18.70
2018,07,05,00,24,18.70
2018,07,05,00,25,18.60
2018,07,05,00,26,18.60
2018,07,05,00,27,18.60
2018,07,05,00,28,18.60
2018,07,05,00,29,18.60
2018,07,05,00,30,18.60
2018,07,05,00,31,18.60
2018,07,05,00,32,18.60
2018,07,05,00,33,18.60
2018,07,05,00,34,18.60
2018,07,05,00,35,18.60
2018,07,05,00,36,18.60
2018,07,05,00,37,18.60
2018,07,05,00,38,18.60
2018,07,05,00,39,18.50
2018,07,05,00,40,18.50
2018,07,05,00,41,18.50
2018,07,05,00,42,18.50
2018,07,05,00,43,18.50
2018,07,05,00,44,18.50
2018,07,05,00,45,18.50
2018,07,05,00,46,18.60
2018,07,05,00,47,18.60
2018,07,05,00,48,18.50
2018,07,05,00,49,18.50
2018,07,05,00,50,18.50
2018,07,05,00,51,18.50
2018,07,05,00,52,18.40
2018,07,05,00,53,18.40
2018,07,05,00,54,18.40
2018,07,05,00,55,18.40
2018,07,05,00,56,18.40
2018,07,05,00,57,18.40
2018,07,05,00,58,18.30
2018,07,05,00,59,18.30
2018,07,05,01,00,18.30
2018,07,05,01,01,18.30
2018,07,05,01,02,18.30
2018,07,05,01,03,18.20
2018,07,05,01,04,18.20
2018,07,05,01,05,18.20
2018,07,05,01,06,18.20
2018,07,05,01,07,18.20
2018,07,05,01,08,18.20
2018,07,05,01,09,18.10
2018,07,05,01,10,18.10
2018,07,05,01,11,18.10
2018,07,05,01,12,18.10
2018,07,05,01,13,18.10
2018,07,05,01,14,18.10
2018,07,05,01,15,18.10
2018,07,05,01,16,18.00
2018,07,05,01,17,18.00
2018,07,05,01,18,18.00
2018,07,05,01,19,18.00
2018,07,05,01,20,18.00
2018,07,05,01,21,18.00
2018,07,05,01,22,18.00
2018,07,05,01,23,18.00
2018,07,05,01,24,17.90
2018,07,05,01,25,17.90
2018,07,05,01,26,17.90
2018,07,05,01,27,17.90
2018,07,05,01,28,17.90
2018,07,05,01,29,17.90
2018,07,05,01,30,17.90
2018,07,05,01,31,17.90
2018,07,05,01,32,17.90
2018,07,05,01,33,17.90
2018,07,05,01,34,17.90
2018,07,05,01,35,17.90
2018,07,05,01,36,17.80
2018,07,05,01,37,17.80
2018,07,05,01,38,17.80
2018,07,05,01,39,17.80
2018,07,05,01,40,17.80
2018,07,05,01,41,17.80
2018,07,05,01,42,17.80
2018,07,05,01,43,17.70
2018,07,05,01,44,17.70
2018,07,05,01,45,17.70
2018,07,05,01,46,17.70
2018,07,05,01,47,17.70
2018,07,05,01,48,17.70
2018,07,05,01,49,17.70
2018,07,05,01,50,17.70
2018,07,05,01,51,17.70
2018,07,05,01,52,17.70
2018,07,05,01,53,17.70
2018,07,05,01,54,17.70
2018,07,05,01,55,17.70
2018,07,05,01,56,17.70
2018,07,05,01,57,17.70
2018,07,05,01,58,17.70
2018,07,05,01,59,17.70
2018,07,05,02,00,17.60
2018,07,05,02,01,17.60
2018,07,05,02,02,17.60
2018,07,05,02,03,17.60
2018,07,05,02,04,17.60
2018,07,05,02,05,17.60
2018,07,05,02,06,17.60
2018,07,05,02,07,17.60
2018,07,05,02,08,17.50
2018,07,05,02,09,17.50
2018,07,05,02,10,17.50
2018,07,05,02,11,17.50
2018,07,05,02,12,17.50
2018,07,05,02,13,17.50
2018,07,05,02,14,17.50
2018,07,05,02,15,17.50
2018,07,05,02,16,17.50
2018,07,05,02,17,17.50
2018,07,05,02,18,17.50
2018,07,05,02,19,17.50
2018,07,05,02,20,17.40
2018,07,05,02,21,17.40
2018,07,05,02,22,17.40
2018,07,05,02,23,17.40
2018,07,05,02,24,17.40
2018,07,05,02,25,17.40
2018,07,05,02,26,17.40
2018,07,05,02,27,17.40
2018,07,05,02,28,17.40
2018,07,05,02,29,17.40
2018,07,05,02,30,17.40
2018,07,05,02,31,17.40
2018,07,05,02,32,17.40
2018,07,05,02,33,17.40
2018,07,05,02,34,17.40
2018,07,05,02,35,17.40
2018,07,05,02,36,17.40
2018,07,05,02,37,17.30
2018,07,05,02,38,17.30
2018,07,05,02,39,17.30
2018,07,05,02,40,17.30
2018,07,05,02,41,17.30
2018,07,05,02,42,17.30
2018,07,05,02,43,17.30
2018,07,05,02,44,17.30
2018,07,05,02,45,17.30
2018,07,05,02,46,17.20
2018,07,05,02,47,17.20
2018,07,05,02,48,17.20
2018,07,05,02,49,17.20
2018,07,05,02,50,17.20
2018,07,05,02,51,17.20
2018,07,05,02,52,17.20
2018,07,05,02,53,17.20
2018,07,05,02,54,17.10
2018,07,05,02,55,17.10
2018,07,05,02,56,17.10
2018,07,05,02,57,17.20
2018,07,05,02,58,17.20
2018,07,05,02,59,17.20
2018,07,05,03,00,17.20
2018,07,05,03,01,17.20
2018,07,05,03,02,17.20
2018,07,05,03,03,17.20
2018,07,05,03,04,17.20
2018,07,05,03,05,17.20
2018,07,05,03,06,17.20
2018,07,05,03,07,17.10
2018,07,05,03,08,17.20
2018,07,05,03,09,17.10
2018,07,05,03,10,17.10
2018,07,05,03,11,17.10
2018,07,05,03,12,17.10
2018,07,05,03,13,17.10
2018,07,05,03,14,17.10
2018,07,05,03,15,17.10
2018,07,05,03,16,17.10
2018,07,05,03,17,17.00
2018,07,05,03,18,17.00
2018,07,05,03,19,17.00
2018,07,05,03,20,17.00
2018,07,05,03,21,16.90
2018,07,05,03,22,16.90
2018,07,05,03,23,16.90
2018,07,05,03,24,16.90
2018,07,05,03,25,16.90
2018,07,05,03,26,16.90
2018,07,05,03,27,16.80
2018,07,05,03,28,16.80
2018,07,05,03,29,16.80
2018,07,05,03,30,16.80
2018,07,05,03,31,16.80
2018,07,05,03,32,16.80
2018,07,05,03,33,16.80
2018,07,05,03,34,16.80
2018,07,05,03,35,16.70
2018,07,05,03,36,16.70
2018,07,05,03,37,16.70
2018,07,05,03,38,16.70
2018,07,05,03,39,16.70
2018,07,05,03,40,16.70
2018,07,05,03,41,16.70
2018,07,05,03,42,16.70
2018,07,05,03,43,16.70
2018,07,05,03,44,16.70
2018,07,05,03,45,16.70
2018,07,05,03,46,16.60
2018,07,05,03,47,16.60
2018,07,05,03,48,16.60
2018,07,05,03,49,16.60
2018,07,05,03,50,16.60
2018,07,05,03,51,16.60
2018,07,05,03,52,16.50
2018,07,05,03,53,16.50
2018,07,05,03,54,16.50
2018,07,05,03,55,16.50
2018,07,05,03,56,16.40
2018,07,05,03,57,16.40
2018,07,05,03,58,16.40
2018,07,05,03,59,16.40
2018,07,05,04,00,16.40
2018,07,05,04,01,16.40
2018,07,05,04,02,16.40
2018,07,05,04,03,16.40
2018,07,05,04,04,16.40
2018,07,05,04,05,16.40
2018,07,05,04,06,16.40
2018,07,05,04,07,16.40
2018,07,05,04,08,16.40
2018,07,05,04,09,16.40
2018,07,05,04,10,16.40
2018,07,05,04,11,16.40
2018,07,05,04,12,16.40
2018,07,05,04,13,16.40
2018,07,05,04,14,16.30
2018,07,05,04,15,16.30
2018,07,05,04,16,16.30
2018,07,05,04,17,16.30
2018,07,05,04,18,16.30
2018,07,05,04,19,16.30
2018,07,05,04,20,16.30
2018,07,05,04,21,16.30
2018,07,05,04,22,16.30
2018,07,05,04,23,16.30
2018,07,05,04,24,16.30
2018,07,05,04,25,16.30
2018,07,05,04,26,16.30
2018,07,05,04,27,16.30
2018,07,05,04,28,16.30
2018,07,05,04,29,16.30
2018,07,05,04,30,16.30
2018,07,05,04,31,16.30
2018,07,05,04,32,16.30
2018,07,05,04,33,16.30
2018,07,05,04,34,16.30
2018,07,05,04,35,16.30
2018,07,05,04,36,16.30
2018,07,05,04,37,16.30
2018,07,05,04,38,16.30
2018,07,05,04,39,16.30
2018,07,05,04,40,16.30
2018,07,05,04,41,16.30
2018,07,05,04,42,16.30
2018,07,05,04,43,16.30
2018,07,05,04,44,16.30
2018,07,05,04,45,16.30
2018,07,05,04,46,16.30
2018,07,05,04,47,16.30
2018,07,05,04,48,16.20
2018,07,05,04,49,16.20
2018,07,05,04,50,16.20
2018,07,05,04,51,16.20
2018,07,05,04,52,16.20
2018,07,05,04,53,16.20
2018,07,05,04,54,16.20
2018,07,05,04,55,16.20
2018,07,05,04,56,16.20
2018,07,05,04,57,16.20
2018,07,05,04,58,16.30
2018,07,05,04,59,16.30
2018,07,05,05,00,16.30
2018,07,05,05,01,16.30
2018,07,05,05,02,16.30
2018,07,05,05,03,16.30
2018,07,05,05,04,16.30
2018,07,05,05,05,16.30
2018,07,05,05,06,16.30
2018,07,05,05,07,16.30
2018,07,05,05,08,16.30
2018,07,05,05,09,16.30
2018,07,05,05,10,16.30
2018,07,05,05,11,16.30
2018,07,05,05,12,16.30
2018,07,05,05,13,16.30
2018,07,05,05,14,16.30
2018,07,05,05,15,16.30
2018,07,05,05,16,16.30
2018,07,05,05,17,16.30
2018,07,05,05,18,16.30
2018,07,05,05,19,16.30
2018,07,05,05,20,16.20
2018,07,05,05,21,16.20
2018,07,05,05,22,16.20
2018,07,05,05,23,16.20
2018,07,05,05,24,16.20
2018,07,05,05,25,16.20
2018,07,05,05,26,16.20
2018,07,05,05,27,16.20
2018,07,05,05,28,16.20
2018,07,05,05,29,16.20
2018,07,05,05,30,16.20
2018,07,05,05,31,16.20
2018,07,05,05,32,16.20
2018,07,05,05,33,16.20
2018,07,05,05,34,16.20
2018,07,05,05,35,16.20
2018,07,05,05,36,16.20
2018,07,05,05,37,16.20
2018,07,05,05,38,16.20
2018,07,05,05,39,16.20
2018,07,05,05,40,16.20
2018,07,05,05,41,16.20
2018,07,05,05,42,16.20
2018,07,05,05,43,16.20
2018,07,05,05,44,16.20
2018,07,05,05,45,16.20
2018,07,05,05,46,16.20
2018,07,05,05,47,16.20
2018,07,05,05,48,16.20
2018,07,05,05,49,16.20
2018,07,05,05,50,16.20
2018,07,05,05,51,16.20
2018,07,05,05,52,16.20
2018,07,05,05,53,16.20
2018,07,05,05,54,16.20
2018,07,05,05,55,16.20
2018,07,05,05,56,16.20
2018,07,05,05,57,16.20
2018,07,05,05,58,16.20
2018,07,05,05,59,16.20
2018,07,05,06,00,16.20
2018,07,05,06,01,16.20
2018,07,05,06,02,16.20
2018,07,05,06,03,16.20
2018,07,05,06,04,16.30
2018,07,05,06,05,16.30
2018,07,05,06,06,16.30
2018,07,05,06,07,16.30
2018,07,05,06,08,16.30
2018,07,05,06,09,16.30
2018,07,05,06,10,16.30
2018,07,05,06,11,16.30
2018,07,05,06,12,16.40
2018,07,05,06,13,16.40
2018,07,05,06,14,16.40
2018,07,05,06,15,16.40
2018,07,05,06,16,16.40
2018,07,05,06,17,16.40
2018,07,05,06,18,16.40
2018,07,05,06,19,16.40
2018,07,05,06,20,16.50
2018,07,05,06,21,16.50
2018,07,05,06,22,16.50
2018,07,05,06,23,16.50
2018,07,05,06,24,16.60
2018,07,05,06,25,16.60
2018,07,05,06,26,16.60
2018,07,05,06,27,16.60
2018,07,05,06,28,16.70
2018,07,05,06,29,16.70
2018,07,05,06,30,16.70
2018,07,05,06,31,16.70
2018,07,05,06,32,16.80
2018,07,05,06,33,16.80
2018,07,05,06,34,16.80
2018,07,05,06,35,16.80
2018,07,05,06,36,16.80
2018,07,05,06,37,16.90
2018,07,05,06,38,16.90
2018,07,05,06,39,16.90
2018,07,05,06,40,16.90
2018,07,05,06,41,16.90
2018,07,05,06,42,16.90
2018,07,05,06,43,17.00
2018,07,05,06,44,17.00
2018,07,05,06,45,17.00
2018,07,05,06,46,17.00
2018,07,05,06,47,17.00
2018,07,05,06,48,17.00
2018,07,05,06,49,17.00
2018,07,05,06,50,17.00
2018,07,05,06,51,17.00
2018,07,05,06,52,17.00
2018,07,05,06,53,17.00
2018,07,05,06,54,17.00
2018,07,05,06,55,17.00
2018,07,05,06,56,17.00
2018,07,05,06,57,17.00
2018,07,05,06,58,17.00
2018,07,05,06,59,17.00
2018,07,05,07,00,17.00
2018,07,05,07,01,17.00
2018,07,05,07,02,17.00
2018,07,05,07,03,17.00
2018,07,05,07,04,17.00
2018,07,05,07,05,17.10
2018,07,05,07,06,17.10
2018,07,05,07,07,17.10
2018,07,05,07,08,17.10
2018,07,05,07,09,17.10
2018,07,05,07,10,17.10
2018,07,05,07,11,17.10
2018,07,05,07,12,17.00
2018,07,05,07,13,17.00
2018,07,05,07,14,17.00
2018,07,05,07,15,16.90
2018,07,05,07,16,16.90
2018,07,05,07,17,16.90
2018,07,05,07,18,16.90
2018,07,05,07,19,16.90
2018,07,05,07,20,16.90
2018,07,05,07,21,16.90
2018,07,05,07,22,17.00
2018,07,05,07,23,17.00
2018,07,05,07,24,17.00
2018,07,05,07,25,17.10
2018,07,05,07,26,17.10
2018,07,05,07,27,17.10
2018,07,05,07,28,17.20
2018,07,05,07,29,17.20
2018,07,05,07,30,17.30
2018,07,05,07,31,17.30
2018,07,05,07,32,17.40
2018,07,05,07,33,17.50
2018,07,05,07,34,17.50
2018,07,05,07,35,17.60
2018,07,05,07,36,17.60
2018,07,05,07,37,17.70
2018,07,05,07,38,17.70
2018,07,05,07,39,17.80
2018,07,05,07,40,17.80
2018,07,05,07,41,17.80
2018,07,05,07,42,17.90
2018,07,05,07,43,17.90
2018,07,05,07,44,17.90
2018,07,05,07,45,17.90
2018,07,05,07,46,17.90
2018,07,05,07,47,17.90
2018,07,05,07,48,18.00
2018,07,05,07,49,18.00
2018,07,05,07,50,18.00
2018,07,05,07,51,18.00
2018,07,05,07,52,18.00
2018,07,05,07,53,18.10
2018,07,05,07,54,18.10
2018,07,05,07,55,18.10
2018,07,05,07,56,18.10
2018,07,05,07,57,18.10
2018,07,05,07,58,18.10
2018,07,05,07,59,18.10
2018,07,05,08,00,18.10
2018,07,05,08,01,18.10
2018,07,05,08,02,18.10
2018,07,05,08,03,18.10
2018,07,05,08,04,18.10
2018,07,05,08,05,18.20
2018,07,05,08,06,18.20
2018,07,05,08,07,18.20
2018,07,05,08,08,18.30
2018,07,05,08,09,18.30
2018,07,05,08,10,18.40
2018,07,05,08,11,18.40
2018,07,05,08,12,18.50
2018,07,05,08,13,18.60
2018,07,05,08,14,18.70
2018,07,05,08,15,18.80
2018,07,05,08,16,18.80
2018,07,05,08,17,18.90
2018,07,05,08,18,19.00
2018,07,05,08,19,19.00
2018,07,05,08,20,19.00
2018,07,05,08,21,19.10
2018,07,05,08,22,19.10
2018,07,05,08,23,19.10
2018,07,05,08,24,19.20
2018,07,05,08,25,19.30
2018,07,05,08,26,19.30
2018,07,05,08,27,19.40
2018,07,05,08,28,19.50
2018,07,05,08,29,19.60
2018,07,05,08,30,19.70
2018,07,05,08,31,19.80
2018,07,05,08,32,19.90
2018,07,05,08,33,20.00
2018,07,05,08,34,20.10
2018,07,05,08,35,20.20
2018,07,05,08,36,20.30
2018,07,05,08,37,20.40
2018,07,05,08,38,20.50
2018,07,05,08,39,20.50
2018,07,05,08,40,20.60
2018,07,05,08,41,20.60
2018,07,05,08,42,20.70
2018,07,05,08,43,20.70
2018,07,05,08,44,20.80
2018,07,05,08,45,20.90
2018,07,05,08,46,20.90
2018,07,05,08,47,20.90
2018,07,05,08,48,21.00
2018,07,05,08,49,21.10
2018,07,05,08,50,21.10
2018,07,05,08,51,21.20
2018,07,05,08,52,21.20
2018,07,05,08,53,21.20
2018,07,05,08,54,21.30
2018,07,05,08,55,21.30
2018,07,05,08,56,21.40
2018,07,05,08,57,21.50
2018,07,05,08,58,21.60
2018,07,05,08,59,21.70
2018,07,05,09,00,21.70
2018,07,05,09,01,21.70
2018,07,05,09,02,21.70
2018,07,05,09,03,21.80
2018,07,05,09,04,21.80
2018,07,05,09,05,21.90
2018,07,05,09,06,21.90
2018,07,05,09,07,22.00
2018,07,05,09,08,22.10
2018,07,05,09,09,22.10
2018,07,05,09,10,22.20
2018,07,05,09,11,22.30
2018,07,05,09,12,22.30
2018,07,05,09,13,22.20
2018,07,05,09,14,22.20
2018,07,05,09,15,22.20
2018,07,05,09,16,22.10
2018,07,05,09,17,22.10
2018,07,05,09,18,22.10
2018,07,05,09,19,22.10
2018,07,05,09,20,22.00
2018,07,05,09,21,22.10
2018,07,05,09,22,22.10
2018,07,05,09,23,22.20
2018,07,05,09,24,22.20
2018,07,05,09,25,22.30
2018,07,05,09,26,22.30
2018,07,05,09,27,22.40
2018,07,05,09,28,22.40
2018,07,05,09,29,22.40
2018,07,05,09,30,22.40
2018,07,05,09,31,22.40
2018,07,05,09,32,22.40
2018,07,05,09,33,22.40
2018,07,05,09,34,22.40
2018,07,05,09,35,22.40
2018,07,05,09,36,22.40
2018,07,05,09,37,22.40
2018,07,05,09,38,22.40
2018,07,05,09,39,22.40
2018,07,05,09,40,22.40
2018,07,05,09,41,22.50
2018,07,05,09,42,22.50
2018,07,05,09,43,22.50
2018,07,05,09,44,22.60
2018,07,05,09,45,22.60
2018,07,05,09,46,22.60
2018,07,05,09,47,22.60
2018,07,05,09,48,22.60
2018,07,05,09,49,22.60
2018,07,05,09,50,22.60
2018,07,05,09,51,22.60
2018,07,05,09,52,22.50
2018,07,05,09,53,22.50
2018,07,05,09,54,22.50
2018,07,05,09,55,22.50
2018,07,05,09,56,22.50
2018,07,05,09,57,22.60
2018,07,05,09,58,22.60
2018,07,05,09,59,22.60
2018,07,05,10,00,22.60
2018,07,05,10,01,22.60
2018,07,05,10,02,22.60
2018,07,05,10,03,22.70
2018,07,05,10,04,22.70
2018,07,05,10,05,22.70
2018,07,05,10,06,22.70
2018,07,05,10,07,22.70
2018,07,05,10,08,22.70
2018,07,05,10,09,22.70
2018,07,05,10,10,22.70
2018,07,05,10,11,22.70
2018,07,05,10,12,22.70
2018,07,05,10,13,22.70
2018,07,05,10,14,22.60
2018,07,05,10,15,22.70
2018,07,05,10,16,22.80
2018,07,05,10,17,22.80
2018,07,05,10,18,22.80
2018,07,05,10,19,22.80
2018,07,05,10,20,22.70
2018,07,05,10,21,22.60
2018,07,05,10,22,22.40
2018,07,05,10,23,22.30
2018,07,05,10,24,22.30
2018,07,05,10,25,22.30
2018,07,05,10,26,22.20
2018,07,05,10,27,22.20
2018,07,05,10,28,22.20
2018,07,05,10,29,22.20
2018,07,05,10,30,22.20
2018,07,05,10,31,22.20
2018,07,05,10,32,22.30
2018,07,05,10,33,22.30
2018,07,05,10,34,22.30
2018,07,05,10,35,22.30
2018,07,05,10,36,22.40
2018,07,05,10,37,22.40
2018,07,05,10,38,22.40
2018,07,05,10,39,22.50
2018,07,05,10,40,22.60
2018,07,05,10,41,22.70
2018,07,05,10,42,22.80
2018,07,05,10,43,22.90
2018,07,05,10,44,22.90
2018,07,05,10,45,22.90
2018,07,05,10,46,23.00
2018,07,05,10,47,23.00
2018,07,05,10,48,22.90
2018,07,05,10,49,22.90
2018,07,05,10,50,23.00
2018,07,05,10,51,23.10
2018,07,05,10,52,23.20
2018,07,05,10,53,23.30
2018,07,05,10,54,23.40
2018,07,05,10,55,23.50
2018,07,05,10,56,23.60
2018,07,05,10,57,23.70
2018,07,05,10,58,23.80
2018,07,05,10,59,23.80
2018,07,05,11,00,23.70
2018,07,05,11,01,23.80
2018,07,05,11,02,23.80
2018,07,05,11,03,23.80
2018,07,05,11,04,23.80
2018,07,05,11,05,23.80
2018,07,05,11,06,23.80
2018,07,05,11,07,23.70
2018,07,05,11,08,23.70
2018,07,05,11,09,23.70
2018,07,05,11,10,23.70
2018,07,05,11,11,23.60
2018,07,05,11,12,23.60
2018,07,05,11,13,23.60
2018,07,05,11,14,23.60
2018,07,05,11,15,23.50
2018,07,05,11,16,23.50
2018,07,05,11,17,23.60
2018,07,05,11,18,23.60
2018,07,05,11,19,23.70
2018,07,05,11,20,23.70
2018,07,05,11,21,23.70
2018,07,05,11,22,23.80
2018,07,05,11,23,23.80
2018,07,05,11,24,23.90
2018,07,05,11,25,24.00
2018,07,05,11,26,24.00
2018,07,05,11,27,24.10
2018,07,05,11,28,24.20
2018,07,05,11,29,24.20
2018,07,05,11,30,24.20
2018,07,05,11,31,24.20
2018,07,05,11,32,24.20
2018,07,05,11,33,24.30
2018,07,05,11,34,24.30
2018,07,05,11,35,24.30
2018,07,05,11,36,24.30
2018,07,05,11,37,24.30
2018,07,05,11,38,24.30
2018,07,05,11,39,24.30
2018,07,05,11,40,24.20
2018,07,05,11,41,24.10
2018,07,05,11,42,23.90
2018,07,05,11,43,23.80
2018,07,05,11,44,23.80
2018,07,05,11,45,23.70
2018,07,05,11,46,23.70
2018,07,05,11,47,23.70
2018,07,05,11,48,23.70
2018,07,05,11,49,23.80
2018,07,05,11,50,23.90
2018,07,05,11,51,24.00
2018,07,05,11,52,24.10
2018,07,05,11,53,24.20
2018,07,05,11,54,24.20
2018,07,05,11,55,24.30
2018,07,05,11,56,24.30
2018,07,05,11,57,24.20
2018,07,05,11,58,24.20
2018,07,05,11,59,24.20
2018,07,05,12,00,24.20
2018,07,05,12,01,24.20
2018,07,05,12,02,24.10
2018,07,05,12,03,24.10
2018,07,05,12,04,24.10
2018,07,05,12,05,24.10
2018,07,05,12,06,24.20
2018,07,05,12,07,24.30
2018,07,05,12,08,24.30
2018,07,05,12,09,24.40
2018,07,05,12,10,24.40
2018,07,05,12,11,24.40
2018,07,05,12,12,24.40
2018,07,05,12,13,24.40
2018,07,05,12,14,24.50
2018,07,05,12,15,24.50
2018,07,05,12,16,24.60
2018,07,05,12,17,24.70
2018,07,05,12,18,24.70
2018,07,05,12,19,24.80
2018,07,05,12,20,24.70
2018,07,05,12,21,24.70
2018,07,05,12,22,24.70
2018,07,05,12,23,24.70
2018,07,05,12,24,24.70
2018,07,05,12,25,24.70
2018,07,05,12,26,24.70
2018,07,05,12,27,24.70
2018,07,05,12,28,24.60
2018,07,05,12,29,24.70
2018,07,05,12,30,24.70
2018,07,05,12,31,24.80
2018,07,05,12,32,24.80
2018,07,05,12,33,24.80
2018,07,05,12,34,24.70
2018,07,05,12,35,24.70
2018,07,05,12,36,24.60
2018,07,05,12,37,24.50
2018,07,05,12,38,24.40
2018,07,05,12,39,24.30
2018,07,05,12,40,24.30
2018,07,05,12,41,24.20
2018,07,05,12,42,24.20
2018,07,05,12,43,24.20
2018,07,05,12,44,24.20
2018,07,05,12,45,24.20
2018,07,05,12,46,24.20
2018,07,05,12,47,24.20
2018,07,05,12,48,24.20
2018,07,05,12,49,24.20
2018,07,05,12,50,24.30
2018,07,05,12,51,24.30
2018,07,05,12,52,24.30
2018,07,05,12,53,24.30
2018,07,05,12,54,24.20
2018,07,05,12,55,24.10
2018,07,05,12,56,24.10
2018,07,05,12,57,24.20
2018,07,05,12,58,24.20
2018,07,05,12,59,24.30
2018,07,05,13,00,24.30
2018,07,05,13,01,24.40
2018,07,05,13,02,24.50
2018,07,05,13,03,24.50
2018,07,05,13,04,24.50
2018,07,05,13,05,24.40
2018,07,05,13,06,24.40
2018,07,05,13,07,24.40
2018,07,05,13,08,24.40
2018,07,05,13,09,24.40
2018,07,05,13,10,24.40
2018,07,05,13,11,24.30
2018,07,05,13,12,24.30
2018,07,05,13,13,24.30
2018,07,05,13,14,24.20
2018,07,05,13,15,24.20
2018,07,05,13,16,24.20
2018,07,05,13,17,24.20
2018,07,05,13,18,24.10
2018,07,05,13,19,24.10
2018,07,05,13,20,24.10
2018,07,05,13,21,24.10
2018,07,05,13,22,24.10
2018,07,05,13,23,24.10
2018,07,05,13,24,24.10
2018,07,05,13,25,24.10
2018,07,05,13,26,24.00
2018,07,05,13,27,24.00
2018,07,05,13,28,23.90
2018,07,05,13,29,23.70
2018,07,05,13,30,23.60
2018,07,05,13,31,23.40
2018,07,05,13,32,23.30
2018,07,05,13,33,23.20
2018,07,05,13,34,23.20
2018,07,05,13,35,23.20
2018,07,05,13,36,23.30
2018,07,05,13,37,23.40
2018,07,05,13,38,23.50
2018,07,05,13,39,23.50
2018,07,05,13,40,23.60
2018,07,05,13,41,23.60
2018,07,05,13,42,23.60
2018,07,05,13,43,23.60
2018,07,05,13,44,23.60
2018,07,05,13,45,23.60
2018,07,05,13,46,23.70
2018,07,05,13,47,23.80
2018,07,05,13,48,23.90
2018,07,05,13,49,24.00
2018,07,05,13,50,24.10
2018,07,05,13,51,24.10
2018,07,05,13,52,24.10
2018,07,05,13,53,24.10
2018,07,05,13,54,24.10
2018,07,05,13,55,24.10
2018,07,05,13,56,24.00
2018,07,05,13,57,24.00
2018,07,05,13,58,24.10
2018,07,05,13,59,24.10
2018,07,05,14,00,24.20
2018,07,05,14,01,24.10
2018,07,05,14,02,24.10
2018,07,05,14,03,24.00
2018,07,05,14,04,23.90
2018,07,05,14,05,23.80
2018,07,05,14,06,23.80
2018,07,05,14,07,23.80
2018,07,05,14,08,23.90
2018,07,05,14,09,23.90
2018,07,05,14,10,23.90
2018,07,05,14,11,23.90
2018,07,05,14,12,23.90
2018,07,05,14,13,23.80
2018,07,05,14,14,23.80
2018,07,05,14,15,23.70
2018,07,05,14,16,23.80
2018,07,05,14,17,23.80
2018,07,05,14,18,23.70
2018,07,05,14,19,23.60
2018,07,05,14,20,23.50
2018,07,05,14,21,23.40
2018,07,05,14,22,23.40
2018,07,05,14,23,23.40
2018,07,05,14,24,23.40
2018,07,05,14,25,23.30
2018,07,05,14,26,23.40
2018,07,05,14,27,23.40
2018,07,05,14,28,23.50
2018,07,05,14,29,23.60
2018,07,05,14,30,23.70
2018,07,05,14,31,23.70
2018,07,05,14,32,23.70
2018,07,05,14,33,23.70
2018,07,05,14,34,23.70
2018,07,05,14,35,23.70
2018,07,05,14,36,23.70
2018,07,05,14,37,23.80
2018,07,05,14,38,23.80
2018,07,05,14,39,23.80
2018,07,05,14,40,23.80
2018,07,05,14,41,23.80
2018,07,05,14,42,23.80
2018,07,05,14,43,23.80
2018,07,05,14,44,23.90
2018,07,05,14,45,24.00
2018,07,05,14,46,24.00
2018,07,05,14,47,24.00
2018,07,05,14,48,24.10
2018,07,05,14,49,24.10
2018,07,05,14,50,24.10
2018,07,05,14,51,24.10
2018,07,05,14,52,24.10
2018,07,05,14,53,24.20
2018,07,05,14,54,24.30
2018,07,05,14,55,24.40
2018,07,05,14,56,24.50
2018,07,05,14,57,24.70
2018,07,05,14,58,24.70
2018,07,05,14,59,24.70
2018,07,05,15,00,24.80
2018,07,05,15,01,24.80
2018,07,05,15,02,24.90
2018,07,05,15,03,25.00
2018,07,05,15,04,25.00
2018,07,05,15,05,24.90
2018,07,05,15,06,24.90
2018,07,05,15,07,24.90
2018,07,05,15,08,24.90
2018,07,05,15,09,24.80
2018,07,05,15,10,24.80
2018,07,05,15,11,24.80
2018,07,05,15,12,24.80
2018,07,05,15,13,24.80
2018,07,05,15,14,24.80
2018,07,05,15,15,24.80
2018,07,05,15,16,24.80
2018,07,05,15,17,24.90
2018,07,05,15,18,24.90
2018,07,05,15,19,25.00
2018,07,05,15,20,25.10
2018,07,05,15,21,25.20
2018,07,05,15,22,25.30
2018,07,05,15,23,25.30
2018,07,05,15,24,25.30
2018,07,05,15,25,25.30
2018,07,05,15,26,25.40
2018,07,05,15,27,25.50
2018,07,05,15,28,25.60
2018,07,05,15,29,25.60
2018,07,05,15,30,25.60
2018,07,05,15,31,25.60
2018,07,05,15,32,25.60
2018,07,05,15,33,25.60
2018,07,05,15,34,25.70
2018,07,05,15,35,25.80
2018,07,05,15,36,25.90
2018,07,05,15,37,26.00
2018,07,05,15,38,26.00
2018,07,05,15,39,26.00
2018,07,05,15,40,26.00
2018,07,05,15,41,25.90
2018,07,05,15,42,25.90
2018,07,05,15,43,25.90
2018,07,05,15,44,26.00
2018,07,05,15,45,26.10
2018,07,05,15,46,26.10
2018,07,05,15,47,26.10
2018,07,05,15,48,26.10
2018,07,05,15,49,26.10
2018,07,05,15,50,26.00
2018,07,05,15,51,26.00
2018,07,05,15,52,26.00
2018,07,05,15,53,26.00
2018,07,05,15,54,26.00
2018,07,05,15,55,25.90
2018,07,05,15,56,26.00
2018,07,05,15,57,26.00
2018,07,05,15,58,26.00
2018,07,05,15,59,26.10
2018,07,05,16,00,26.10
2018,07,05,16,01,26.10
2018,07,05,16,02,26.10
2018,07,05,16,03,26.10
2018,07,05,16,04,26.20
2018,07,05,16,05,26.20
2018,07,05,16,06,26.20
2018,07,05,16,07,26.20
2018,07,05,16,08,26.20
2018,07,05,16,09,26.10
2018,07,05,16,10,26.10
2018,07,05,16,11,26.20
2018,07,05,16,12,26.30
2018,07,05,16,13,26.40
2018,07,05,16,14,26.40
2018,07,05,16,15,26.40
2018,07,05,16,16,26.40
2018,07,05,16,17,26.30
2018,07,05,16,18,26.30
2018,07,05,16,19,26.20
2018,07,05,16,20,26.20
2018,07,05,16,21,26.20
2018,07,05,16,22,26.10
2018,07,05,16,23,26.00
2018,07,05,16,24,26.00
2018,07,05,16,25,26.00
2018,07,05,16,26,26.00
2018,07,05,16,27,26.10
2018,07,05,16,28,26.10
2018,07,05,16,29,26.20
2018,07,05,16,30,26.40
2018,07,05,16,31,26.50
2018,07,05,16,32,26.60
2018,07,05,16,33,26.50
2018,07,05,16,34,26.40
2018,07,05,16,35,26.30
2018,07,05,16,36,26.30
2018,07,05,16,37,26.40
2018,07,05,16,38,26.40
2018,07,05,16,39,26.40
2018,07,05,16,40,26.50
2018,07,05,16,41,26.50
2018,07,05,16,42,26.60
2018,07,05,16,43,26.70
2018,07,05,16,44,26.70
2018,07,05,16,45,26.60
2018,07,05,16,46,26.50
2018,07,05,16,47,26.40
2018,07,05,16,48,26.40
2018,07,05,16,49,26.50
2018,07,05,16,50,26.50
2018,07,05,16,51,26.60
2018,07,05,16,52,26.50
2018,07,05,16,53,26.50
2018,07,05,16,54,26.40
2018,07,05,16,55,26.30
2018,07,05,16,56,26.30
2018,07,05,16,57,26.30
2018,07,05,16,58,26.20
2018,07,05,16,59,26.10
2018,07,05,17,00,26.10
2018,07,05,17,01,26.00
2018,07,05,17,02,26.00
2018,07,05,17,03,25.90
2018,07,05,17,04,25.80
2018,07,05,17,05,25.80
2018,07,05,17,06,25.80
2018,07,05,17,07,25.80
2018,07,05,17,08,25.80
2018,07,05,17,09,25.80
2018,07,05,17,10,25.80
2018,07,05,17,11,25.80
2018,07,05,17,12,25.80
2018,07,05,17,13,25.80
2018,07,05,17,14,25.70
2018,07,05,17,15,25.60
2018,07,05,17,16,25.60
2018,07,05,17,17,25.40
2018,07,05,17,18,25.40
2018,07,05,17,19,25.30